{"data":{"norad_id":68858,"intl_designator":"2026-094V","name":"STARLINK-37441","alt_names":[],"object_type":"PAYLOAD","status":"ACTIVE","operator":null,"country":"US","launch_date":"2026-04-26","launch_site_code":"AFWTR","launch_vehicle":null,"mission":null,"orbit_class":"UNKNOWN","rcs_meters":null,"size_class":null,"mass_kg":null,"dimensions":null,"purposes":["comms"],"wikipedia_slug":null,"has_3d_model":false,"image_url":null,"decayed_at":null,"tle_current":{"epoch":"2026-05-25T04:00:03.998880Z","epoch_age_seconds":56791,"freshness":"FRESH","line1":"1 68858U 26094V   26145.16671295 -.00011521  00000+0 -21055-3 0  9998","line2":"2 68858  97.2849 159.9319 0001436  86.2312 149.2213 15.49178505  5674","mean_motion":15.49178505,"eccentricity":0.0001436,"inclination_deg":97.2849,"raan_deg":159.9319,"arg_perigee_deg":86.2312,"mean_anomaly_deg":149.2213,"bstar":-0.00021055,"rev_number":567,"period_min":92.952490326478,"perigee_km":418.15187983589,"apogee_km":420.10405433444,"semimajor_km":6797.2649670852,"source":"CELESTRAK","updated_at":"2026-05-25T13:38:22.064623Z"}}}